Orbital Elements at Epoch 2459200.5 (2020-Dec-17.0) TDB
Reference: JPL 22 (heliocentric ecliptic J2000)
Element | Value | Uncertainty (1-sigma) | Units |
e | .1262416493169825 | 3.5244e-08 | |
a | 2.981357767455262 | 1.6833e-08 | au |
q | 2.604986245687714 | 1.0488e-07 | au |
i | .6565561601604543 | 5.0692e-06 | deg |
node | 11.52739002460556 | 0.0003212 | deg |
peri | 301.1401642959818 | 0.00032202 | deg |
M | 59.35103074596562 | 2.0857e-05 | deg |
tp | 2458890.511677051808 (2020-Feb-11.01167705) | 0.00010958 | TDB |
period | 1880.267197700434 5.15 | 1.5924e-05 4.36e-08 | d yr |
n | .191462149869061 | 1.6215e-09 | deg/d |
Q | 3.357729289222811 | 1.8958e-08 | au |
|
| | Orbit Determination Parameters
Additional Information
|